Miscellaneous Local Product
Issued by NWS Hastings, NE

Home | Current Version | Previous Version | Graphics & Text | Print | Product List | Glossary On
Versions: 1 2 3 4 5 6 7 8 9 10 11 12 13 14 15 16 17 18 19 20 21 22 23 24 25 26 27 28 29 30 31 32 33 34 35 36 37 38 39 40 41 42 43 44 45 46 47 48 49 50
000
AXUS43 KGID 241302
MISGRI

GID CWA HOURLY WEATHER ROUNDUP
NATIONAL WEATHER SERVICE HASTINGS NE
800 AM CDT MON APR 24 2017

NOTE: "FAIR" INDICATES FEW OR NO CLOUDS BELOW 12,000 FEET WITH NO
SIGNIFICANT WEATHER AND/OR OBSTRUCTIONS TO VISIBILITY.

...SOUTH CENTRAL NEBRASKA...

CITY           SKY/WX    TMP DP  RH WIND       PRES   REMARKS
GRAND ISLAND   MOSUNNY   52  36  54 S16G23    29.64F
HASTINGS       MOSUNNY   52  34  50 S14G28    29.63S
KEARNEY        MOSUNNY   52  34  50 S21G30    29.60R
ORD            CLOUDY    52  34  50 S12       29.59F
YORK           CLOUDY    54  36  50 S22G37    29.67S
AURORA         CLOUDY    52  35  51 S21G28    29.64F
LEXINGTON      CLOUDY    51  36  55 S14G20    29.57S
HOLDREGE       CLOUDY    52  34  51 S18G25    29.57F
HEBRON         PTSUNNY   52  37  55 S23G35    29.69F

...NEBRASKA PANHANDLE...

CITY           SKY/WX    TMP DP  RH WIND       PRES   REMARKS
CHADRON        MOSUNNY   50  42  74 N8G20     29.61R
ALLIANCE       CLOUDY    50  41  71 NW12      29.60R
SCOTTSBLUFF    CLOUDY    52  39  61 NW12      29.64R
SIDNEY         CLOUDY    52  37  56 W17       29.64R

...WESTERN AND NORTH CENTRAL NEBRASKA...

CITY           SKY/WX    TMP DP  RH WIND       PRES   REMARKS
VALENTINE      MOSUNNY   51  35  54 SW5       29.53S
AINSWORTH      CLOUDY    48  38  68 S10       29.55S
ONEILL         CLOUDY    53  33  47 S21G28    29.58S
BROKEN BOW     PTSUNNY   50  35  56 S9        29.57F
IMPERIAL       CLOUDY    44  38  79 NW13      29.58R
NORTH PLATTE   CLOUDY    47  38  71 E5        29.56R
MCCOOK         MOSUNNY   49  38  65 S3        29.54R

...EASTERN NEBRASKA...

CITY           SKY/WX    TMP DP  RH WIND       PRES   REMARKS
NORFOLK        CLOUDY    51  35  54 S16G24    29.64F
SO SIOUX CITY  PTSUNNY   53  39  59 SE15      29.71F
TEKAMAH        PTSUNNY   53  38  56 S20       29.74F
COLUMBUS       CLOUDY    52  36  54 S15G23    29.68F
ALBION         CLOUDY    52  35  52 S14       29.64S
OMAHA EPPLEY   CLOUDY    55  36  48 S22G28    29.77F
OFFUTT AFB     CLOUDY    54  37  54 S13       29.78F
MILLARD        MOSUNNY   55  39  54 SE13G20   29.77F
LINCOLN        PTSUNNY   55  37  50 S22G30    29.73F
NEBRASKA CITY  MOSUNNY   52  32  46 S20G26    29.79F
BEATRICE       MOSUNNY   55  38  53 S18G29    29.73F
FALLS CITY     CLOUDY    52  39  61 S13       29.82F

...NORTHERN KANSAS...

CITY           SKY/WX    TMP DP  RH WIND       PRES   REMARKS
GOODLAND       CLOUDY    53  42  66 NW17      29.59R
HILL CITY      CLOUDY    53  37  54 S15G22    29.58S
NORTON         SUNNY     50  34  53 S9        29.56S
PHILLIPSBURG   SUNNY     55  36  47 S18G25    29.63R
SMITH CENTER   SUNNY     54  36  50 S23G29    29.63F
HAYS           MOSUNNY   53  37  54 S18G30    29.65R
RUSSELL        MOSUNNY   54  37  52 S24G39    29.63F
CONCORDIA      SUNNY     51  39  63 S24G32    29.70F
SALINA         SUNNY     55  39  54 S23G31    29.76F
TOPEKA         SUNNY     55  40  56 S15       29.85F



USA.gov is the U.S. government's official web portal to all federal, state and local government web resources and services.